�������l�o���
Date,Time,MP-1(��Sv/h),MP-2(��Sv/h),MP-3(��Sv/h),MP-4(��Sv/h),MP-5(��Sv/h),MP-6(��Sv/h),MP-7(��Sv/h),MP-8(��Sv/h),����,����(m/s),���J
2017/04/24,00:00,1.024,1.658,1.110,1.983,1.365,0.542,0.994,0.923,��,1.7,��
2017/04/24,00:10,1.024,1.661,1.106,1.982,1.364,0.542,0.997,0.921,���쓌,2.2,��
2017/04/24,00:20,1.024,1.661,1.108,1.984,1.364,0.541,0.995,0.922,���쓌,1.7,��
2017/04/24,00:30,1.023,1.662,1.107,1.980,1.367,0.541,0.995,0.922,���쓌,2.0,��
2017/04/24,00:40,1.025,1.662,1.109,1.982,1.364,0.542,0.996,0.921,���쓌,1.4,��
2017/04/24,00:50,1.024,1.662,1.109,1.982,1.365,0.541,0.996,0.922,�쓌,1.9,��
2017/04/24,01:00,1.022,1.659,1.107,1.986,1.363,0.542,0.995,0.924,���쓌,1.5,��
2017/04/24,01:10,1.024,1.660,1.108,1.983,1.365,0.541,0.993,0.921,���쓌,1.5,��
2017/04/24,01:20,1.023,1.662,1.115,1.980,1.362,0.541,0.995,0.921,�쓌,1.5,��
2017/04/24,01:30,1.024,1.662,1.106,1.983,1.362,0.542,0.994,0.921,�쓌,0.8,��
2017/04/24,01:40,1.024,1.658,1.107,1.983,1.363,0.540,0.996,0.921,��,0.9,��
2017/04/24,01:50,1.021,1.658,1.106,1.986,1.364,0.541,0.996,0.920,��,1.4,��
2017/04/24,02:00,1.018,1.660,1.104,1.982,1.362,0.540,0.995,0.920,��,1.1,��
2017/04/24,02:10,1.021,1.661,1.107,1.980,1.364,0.540,0.993,0.919,��쐼,1.1,��
2017/04/24,02:20,1.023,1.660,1.108,1.981,1.367,0.541,0.994,0.919,��쐼,1.1,��
2017/04/24,02:30,1.021,1.659,1.109,1.980,1.364,0.541,0.995,0.921,��,1.7,��
2017/04/24,02:40,1.024,1.657,1.108,1.982,1.366,0.540,0.994,0.921,��쐼,1.5,��
2017/04/24,02:50,1.021,1.660,1.109,1.982,1.364,0.541,0.994,0.921,��,1.4,��
2017/04/24,03:00,1.022,1.657,1.108,1.983,1.366,0.540,0.994,0.921,��쐼,1.7,��
2017/04/24,03:10,1.021,1.659,1.106,1.980,1.362,0.541,0.995,0.921,���쐼,1.4,��
2017/04/24,03:20,1.022,1.658,1.107,1.982,1.363,0.540,0.993,0.922,�쐼,1.9,��
2017/04/24,03:30,1.020,1.658,1.106,1.983,1.362,0.541,0.997,0.922,�쐼,1.9,��
2017/04/24,03:40,1.021,1.660,1.108,1.981,1.364,0.539,0.996,0.922,�쐼,2.0,��
2017/04/24,03:50,1.021,1.659,1.107,1.980,1.365,0.542,0.993,0.921,��쐼,1.5,��
2017/04/24,04:00,1.023,1.658,1.108,1.981,1.363,0.541,0.994,0.920,��쐼,1.2,��
2017/04/24,04:10,1.019,1.657,1.106,1.979,1.363,0.539,0.994,0.920,��쐼,1.1,��
2017/04/24,04:20,1.018,1.659,1.106,1.981,1.361,0.540,0.994,0.923,��쐼,1.4,��
2017/04/24,04:30,1.019,1.658,1.106,1.978,1.361,0.540,0.994,0.920,��쐼,1.9,��
2017/04/24,04:40,1.020,1.658,1.108,1.980,1.363,0.543,0.995,0.922,�쐼,2.5,��
2017/04/24,04:50,1.019,1.659,1.107,1.984,1.364,0.541,0.996,0.920,��쐼,2.8,��
2017/04/24,05:00,1.020,1.660,1.108,1.982,1.361,0.539,0.991,0.921,�쐼,2.6,��
2017/04/24,05:10,1.018,1.659,1.106,1.983,1.364,0.542,0.995,0.922,��쐼,2.5,��
2017/04/24,05:20,1.021,1.655,1.106,1.983,1.360,0.542,0.994,0.919,�쐼,2.6,��
2017/04/24,05:30,1.020,1.657,1.106,1.982,1.364,0.538,0.995,0.924,�쐼,2.3,��
2017/04/24,05:40,1.021,1.660,1.107,1.982,1.363,0.541,0.994,0.921,��쐼,2.3,��
2017/04/24,05:50,1.020,1.654,1.106,1.981,1.363,0.540,0.993,0.920,��쐼,2.3,��
2017/04/24,06:00,1.022,1.659,1.106,1.982,1.361,0.540,0.995,0.922,��쐼,2.3,��
2017/04/24,06:10,1.019,1.660,1.107,1.983,1.362,0.540,0.995,0.923,��쐼,2.3,��
2017/04/24,06:20,1.021,1.659,1.108,1.982,1.364,0.540,0.992,0.921,��쐼,2.6,��
2017/04/24,06:30,1.018,1.657,1.106,1.983,1.362,0.540,0.994,0.921,��쐼,2.6,��
2017/04/24,06:40,1.020,1.658,1.106,1.984,1.362,0.541,0.994,0.921,��,2.8,��
2017/04/24,06:50,1.023,1.660,1.109,1.981,1.363,0.541,0.996,0.922,��,2.9,��
2017/04/24,07:00,1.019,1.660,1.106,1.984,1.364,0.543,0.997,0.922,��,2.3,��
2017/04/24,07:10,1.021,1.662,1.107,1.984,1.363,0.540,0.996,0.922,��,1.7,��
2017/04/24,07:20,1.024,1.661,1.108,1.984,1.364,0.540,0.996,0.921,��쓌,1.9,��
2017/04/24,07:30,1.022,1.661,1.109,1.985,1.364,0.540,0.997,0.921,��쓌,2.5,��
2017/04/24,07:40,1.021,1.664,1.109,1.983,1.365,0.541,0.997,0.920,��쓌,3.0,��
2017/04/24,07:50,1.020,1.662,1.109,1.982,1.367,0.542,0.997,0.922,��쓌,3.4,��
2017/04/24,08:00,1.023,1.662,1.109,1.984,1.365,0.538,0.995,0.923,��쓌,3.3,��
2017/04/24,08:10,1.022,1.662,1.109,1.984,1.368,0.539,0.995,0.922,��쓌,3.4,��
2017/04/24,08:20,1.024,1.659,1.108,1.985,1.365,0.541,0.993,0.921,��쓌,3.6,��
2017/04/24,08:30,1.023,1.660,1.111,1.988,1.365,0.539,0.993,0.923,�쓌,3.4,��
2017/04/24,08:40,1.023,1.660,1.110,1.987,1.365,0.538,0.992,0.920,���쓌,2.9,��
2017/04/24,08:50,1.025,1.660,1.110,1.987,1.362,0.537,0.992,0.920,�쓌,3.8,��
2017/04/24,09:00,1.025,1.659,1.108,1.986,1.361,0.540,0.993,0.922,�쓌,3.4,��
2017/04/24,09:10,1.023,1.659,1.109,1.985,1.363,0.539,0.993,0.919,�쓌,4.1,��
2017/04/24,09:20,1.026,1.658,1.111,1.984,1.359,0.539,0.994,0.919,���쓌,4.0,��
2017/04/24,09:30,1.022,1.662,1.111,1.986,1.366,0.540,0.992,0.920,�쓌,4.0,��
2017/04/24,09:40,1.025,1.660,1.112,1.988,1.363,0.539,0.995,0.921,���쓌,3.9,��
2017/04/24,09:50,1.023,1.663,1.111,1.989,1.363,0.538,0.994,0.918,�쓌,4.5,��
2017/04/24,10:00,1.016,1.658,1.110,1.988,1.365,0.539,0.993,0.919,�쓌,4.3,��
2017/04/24,10:10,1.020,1.659,1.110,1.987,1.363,0.540,0.994,0.920,���쓌,4.4,��
2017/04/24,10:20,1.019,1.661,1.110,1.988,1.363,0.541,0.994,0.918,�쓌,5.1,��
2017/04/24,10:30,1.021,1.663,1.111,1.988,1.363,0.540,0.995,0.920,���쓌,5.0,��
2017/04/24,10:40,1.019,1.663,1.111,1.990,1.365,0.542,0.996,0.919,�쓌,5.9,��
2017/04/24,10:50,1.022,1.659,1.110,1.987,1.362,0.541,0.995,0.920,���쓌,5.1,��
2017/04/24,11:00,1.023,1.664,1.107,1.989,1.365,0.540,0.994,0.919,���쓌,6.5,��
2017/04/24,11:10,1.023,1.663,1.107,1.989,1.365,0.540,0.994,0.920,�쓌,5.6,��
2017/04/24,11:20,1.025,1.664,1.110,1.990,1.366,0.541,0.996,0.921,�쓌,5.5,��
2017/04/24,11:30,1.023,1.663,1.110,1.988,1.366,0.541,0.995,0.919,���쓌,4.6,��
2017/04/24,11:40,1.023,1.665,1.110,1.992,1.368,0.542,0.996,0.920,���쓌,4.3,��
2017/04/24,11:50,1.025,1.665,1.110,1.988,1.367,0.540,0.995,0.919,�쓌,5.8,��
2017/04/24,12:00,1.022,1.666,1.109,1.986,1.368,0.540,0.993,0.920,�쓌,5.1,��
2017/04/24,12:10,1.020,1.665,1.109,1.987,1.365,0.541,0.995,0.921,�쓌,4.6,��
2017/04/24,12:20,1.025,1.667,1.112,1.988,1.370,0.542,0.997,0.920,�쓌,5.3,��
2017/04/24,12:30,1.024,1.664,1.112,1.989,1.369,0.541,0.995,0.920,���쓌,5.6,��
2017/04/24,12:40,1.022,1.664,1.109,1.989,1.369,0.542,0.997,0.921,���쓌,5.2,��
2017/04/24,12:50,1.020,1.666,1.111,1.989,1.368,0.542,0.995,0.920,���쓌,4.8,��
2017/04/24,13:00,1.021,1.669,1.112,1.995,1.370,0.539,0.993,0.922,�쓌,6.3,��
2017/04/24,13:10,1.022,1.667,1.110,1.992,1.371,0.540,0.996,0.920,�쓌,5.1,��
2017/04/24,13:20,1.022,1.666,1.110,1.991,1.371,0.542,0.996,0.920,�쓌,6.8,��
2017/04/24,13:30,1.021,1.669,1.111,1.991,1.373,0.541,0.996,0.920,�쓌,5.5,��
2017/04/24,13:40,1.024,1.665,1.111,1.990,1.373,0.542,0.995,0.918,�쓌,4.7,��
2017/04/24,13:50,1.023,1.663,1.110,1.994,1.373,0.542,0.996,0.920,��쓌,5.3,��
2017/04/24,14:00,1.026,1.669,1.112,1.995,1.372,0.543,0.996,0.922,��쓌,6.2,��
2017/04/24,14:10,1.023,1.669,1.113,1.991,1.374,0.542,0.997,0.921,��쓌,7.3,��
2017/04/24,14:20,1.023,1.668,1.110,1.993,1.370,0.542,0.997,0.920,��쓌,6.7,��
2017/04/24,14:30,1.022,1.669,1.111,1.989,1.374,0.542,0.998,0.921,��쓌,6.0,��
2017/04/24,14:40,1.024,1.664,1.112,1.994,1.372,0.543,0.998,0.921,��쓌,5.7,��
2017/04/24,14:50,1.023,1.669,1.112,1.992,1.374,0.542,0.997,0.921,��쓌,6.2,��
2017/04/24,15:00,1.024,1.670,1.112,1.989,1.373,0.543,0.997,0.921,��쓌,6.2,��
2017/04/24,15:10,1.025,1.669,1.112,1.985,1.372,0.543,0.996,0.920,��쓌,7.3,��
2017/04/24,15:20,1.025,1.672,1.111,1.988,1.371,0.543,0.995,0.920,��쓌,8.6,��
2017/04/24,15:30,1.025,1.672,1.113,1.987,1.373,0.544,0.998,0.920,��쓌,9.2,��
2017/04/24,15:40,1.026,1.672,1.112,1.992,1.373,0.545,0.995,0.921,��쓌,9.5,��
2017/04/24,15:50,1.024,1.672,1.112,1.989,1.372,0.544,0.997,0.921,��쓌,9.4,��
2017/04/24,16:00,1.027,1.673,1.114,1.990,1.373,0.545,0.997,0.923,��쓌,7.5,��
2017/04/24,16:10,1.024,1.674,1.113,1.991,1.373,0.545,0.997,0.921,��쓌,8.5,��
2017/04/24,16:20,1.025,1.672,1.115,1.989,1.374,0.545,0.997,0.920,��쓌,7.5,�L
2017/04/24,16:30,1.026,1.675,1.114,1.992,1.374,0.544,0.997,0.920,��쓌,8.1,��
2017/04/24,16:40,1.024,1.674,1.115,1.991,1.376,0.546,0.998,0.922,��쓌,9.7,��
2017/04/24,16:50,1.025,1.671,1.115,1.990,1.373,0.544,0.996,0.923,��쓌,11.8,��
2017/04/24,17:00,1.023,1.675,1.114,1.989,1.373,0.545,0.997,0.923,��쓌,11.6,��
2017/04/24,17:10,1.026,1.673,1.113,1.991,1.371,0.546,0.996,0.923,��쓌,11.6,��
2017/04/24,17:20,1.025,1.673,1.112,1.991,1.370,0.546,0.996,0.923,��쓌,11.3,��
2017/04/24,17:30,1.026,1.673,1.115,1.991,1.371,0.545,0.995,0.923,��쓌,11.1,��
2017/04/24,17:40,1.026,1.674,1.112,1.993,1.373,0.547,0.996,0.924,��쓌,11.3,��
2017/04/24,17:50,1.026,1.671,1.115,1.991,1.375,0.546,0.997,0.924,��쓌,10.7,��
2017/04/24,18:00,1.028,1.671,1.116,1.991,1.372,0.546,0.995,0.924,��쓌,10.9,��
2017/04/24,18:10,1.027,1.674,1.115,1.995,1.374,0.546,0.998,0.923,��쓌,10.4,��
2017/04/24,18:20,1.025,1.674,1.115,1.992,1.378,0.546,0.997,0.924,��쓌,9.6,��
2017/04/24,18:30,1.026,1.676,1.116,1.993,1.375,0.544,0.997,0.923,��쓌,9.8,��
2017/04/24,18:40,1.027,1.673,1.117,1.994,1.377,0.546,0.997,0.923,��쓌,10.4,��
2017/04/24,18:50,1.027,1.672,1.117,1.992,1.379,0.547,0.997,0.923,��쓌,10.0,��
2017/04/24,19:00,1.028,1.674,1.115,1.991,1.377,0.547,0.997,0.921,��쓌,9.8,��
2017/04/24,19:10,1.028,1.671,1.114,1.992,1.376,0.545,0.999,0.924,��쓌,8.6,��
2017/04/24,19:20,1.026,1.672,1.112,1.992,1.375,0.546,0.999,0.923,��쓌,9.2,��
2017/04/24,19:30,1.025,1.671,1.117,1.991,1.373,0.545,0.999,0.922,��쓌,9.6,��
2017/04/24,19:40,1.026,1.669,1.112,1.994,1.375,0.546,0.999,0.924,��쓌,9.8,��
2017/04/24,19:50,1.026,1.670,1.115,1.995,1.374,0.548,0.998,0.924,��,9.3,��
2017/04/24,20:00,1.026,1.671,1.115,1.991,1.375,0.545,1.001,0.922,��,7.6,��
2017/04/24,20:10,1.026,1.671,1.115,1.991,1.379,0.547,0.999,0.923,��쓌,8.9,��
2017/04/24,20:20,1.025,1.673,1.115,1.993,1.376,0.545,0.999,0.922,��,8.9,��
2017/04/24,20:30,1.028,1.673,1.115,1.993,1.374,0.547,0.998,0.923,��,7.6,��
2017/04/24,20:40,1.027,1.671,1.113,1.993,1.373,0.547,1.000,0.922,��,7.6,��
2017/04/24,20:50,1.028,1.670,1.114,1.992,1.374,0.547,1.002,0.923,��,7.4,��
2017/04/24,21:00,1.028,1.670,1.112,1.993,1.374,0.546,1.000,0.924,��,7.2,��
2017/04/24,21:10,1.027,1.671,1.115,1.991,1.376,0.545,0.998,0.925,��,8.0,��
2017/04/24,21:20,1.029,1.674,1.114,1.991,1.374,0.545,0.999,0.924,��,8.0,��
2017/04/24,21:30,1.026,1.672,1.113,1.991,1.374,0.547,1.000,0.922,��,7.8,��
2017/04/24,21:40,1.030,1.670,1.114,1.990,1.373,0.546,0.999,0.925,��,8.2,��
2017/04/24,21:50,1.028,1.668,1.114,1.990,1.374,0.545,1.000,0.922,��,7.7,��
2017/04/24,22:00,1.029,1.667,1.114,1.993,1.373,0.544,0.998,0.924,��,6.9,��
2017/04/24,22:10,1.027,1.670,1.114,1.989,1.374,0.545,0.997,0.923,��,7.8,��
2017/04/24,22:20,1.026,1.672,1.114,1.992,1.370,0.547,1.000,0.923,��,8.1,��
2017/04/24,22:30,1.026,1.669,1.114,1.991,1.371,0.545,0.997,0.925,��,7.9,��
2017/04/24,22:40,1.026,1.670,1.114,1.989,1.373,0.546,0.998,0.924,��,7.3,��
2017/04/24,22:50,1.025,1.668,1.113,1.990,1.372,0.546,0.997,0.923,��,6.9,��
2017/04/24,23:00,1.027,1.666,1.111,1.995,1.369,0.543,0.998,0.922,��,6.4,��
2017/04/24,23:10,1.024,1.668,1.112,1.988,1.372,0.545,0.998,0.924,��,7.9,��
2017/04/24,23:20,1.027,1.669,1.112,1.990,1.374,0.544,0.997,0.923,��,8.3,��
2017/04/24,23:30,1.026,1.667,1.114,1.988,1.373,0.543,0.996,0.922,��,7.6,��
2017/04/24,23:40,1.028,1.664,1.113,1.990,1.372,0.543,0.997,0.922,��,7.8,��
2017/04/24,23:50,1.024,1.670,1.111,1.993,1.373,0.543,0.999,0.923,��,7.8,��
